TimePST,TemperatureF,Dew PointF,Humidity,Sea Level PressureIn,VisibilityMPH,Wind Direction,Wind SpeedMPH,Gust SpeedMPH,PrecipitationIn,Events,Conditions,WindDirDegrees,DateUTC
12:13 AM,53.6,53.6,100,30.15,2.5,Calm,Calm,-,N/A,,Clear,0,2012-12-05 08:13:00
12:18 AM,53.6,53.6,100,30.15,1.8,NNW,2.3,-,N/A,,Clear,340,2012-12-05 08:18:00
12:23 AM,53.6,53.6,100,30.15,2.5,Calm,Calm,-,N/A,,Clear,0,2012-12-05 08:23:00
12:28 AM,51.8,51.8,100,30.15,5.0,Calm,Calm,-,N/A,,Clear,0,2012-12-05 08:28:00
12:33 AM,51.8,51.8,100,30.15,2.0,Calm,Calm,-,N/A,,Clear,0,2012-12-05 08:33:00
12:38 AM,51.8,51.8,100,30.15,1.2,Calm,Calm,-,N/A,,Clear,0,2012-12-05 08:38:00
12:43 AM,53.6,53.6,100,30.15,0.8,NE,2.3,-,N/A,,Clear,50,2012-12-05 08:43:00
12:48 AM,53.6,53.6,100,30.15,0.5,NE,2.3,-,N/A,Fog,Fog,50,2012-12-05 08:48:00
12:58 AM,53.2,53.2,100,30.14,0.5,ENE,2.3,-,N/A,Fog,Fog,60,2012-12-05 08:58:00
1:03 AM,53.6,53.6,100,30.14,0.5,Calm,Calm,-,N/A,Fog,Fog,0,2012-12-05 09:03:00
1:13 AM,53.6,53.6,100,30.14,0.8,Calm,Calm,-,N/A,,Clear,0,2012-12-05 09:13:00
1:23 AM,51.8,51.8,100,30.14,0.2,Calm,Calm,-,N/A,Fog,Fog,0,2012-12-05 09:23:00
1:48 AM,51.8,51.8,100,30.14,0.5,North,2.3,-,N/A,Fog,Fog,350,2012-12-05 09:48:00
1:53 AM,51.8,51.8,100,30.14,1.8,NE,1.2,-,N/A,,Clear,40,2012-12-05 09:53:00
1:58 AM,50.9,50.9,100,30.14,5.0,ENE,2.3,-,N/A,,Clear,60,2012-12-05 09:58:00
2:03 AM,50.0,50.0,100,30.14,1.8,ENE,3.5,-,N/A,,Clear,60,2012-12-05 10:03:00
2:08 AM,51.8,51.8,100,30.14,0.8,ENE,3.5,-,N/A,,Clear,60,2012-12-05 10:08:00
2:11 AM,50.0,50.0,100,30.14,0.5,NE,3.5,-,N/A,Fog,Fog,50,2012-12-05 10:11:00
2:16 AM,51.8,51.8,100,30.14,0.5,NNE,3.5,-,N/A,Fog,Fog,20,2012-12-05 10:16:00
2:21 AM,51.8,51.8,100,30.14,1.0,NNE,3.5,-,N/A,,Mist,30,2012-12-05 10:21:00
2:26 AM,51.8,51.8,100,30.13,2.0,NE,3.5,-,N/A,,Mostly Cloudy,40,2012-12-05 10:26:00
2:36 AM,51.8,51.8,100,30.13,3.0,ENE,3.5,-,N/A,,Overcast,70,2012-12-05 10:36:00
2:58 AM,52.2,52.2,100,30.12,3.0,Calm,Calm,-,N/A,,Overcast,0,2012-12-05 10:58:00
3:03 AM,51.8,51.8,100,30.12,2.0,ENE,1.2,-,N/A,,Overcast,60,2012-12-05 11:03:00
3:08 AM,51.8,51.8,100,30.12,1.2,Calm,Calm,-,N/A,,Overcast,0,2012-12-05 11:08:00
3:18 AM,51.8,51.8,100,30.12,1.5,Calm,Calm,-,N/A,,Overcast,0,2012-12-05 11:18:00
3:23 AM,51.8,51.8,100,30.12,0.8,Calm,Calm,-,N/A,,Overcast,0,2012-12-05 11:23:00
3:28 AM,51.8,51.8,100,30.12,0.2,Calm,Calm,-,N/A,Fog,Fog,0,2012-12-05 11:28:00
3:58 AM,52.7,52.7,100,30.12,0.2,SE,2.3,-,N/A,Fog,Fog,130,2012-12-05 11:58:00
4:03 AM,53.6,53.6,100,30.11,0.5,Calm,Calm,-,N/A,Fog,Fog,0,2012-12-05 12:03:00
4:13 AM,53.6,53.6,100,30.11,0.8,Calm,Calm,-,N/A,,Mist,0,2012-12-05 12:13:00
4:18 AM,53.6,53.6,100,30.11,0.5,Calm,Calm,-,N/A,Fog,Fog,0,2012-12-05 12:18:00
4:48 AM,53.6,53.6,100,30.11,0.2,Calm,Calm,-,N/A,Fog,Fog,0,2012-12-05 12:48:00
6:58 AM,54.1,54.1,100,30.14,0.2,NE,3.5,-,N/A,Fog,Fog,40,2012-12-05 14:58:00
7:03 AM,53.6,53.6,100,30.13,0.2,NNE,1.2,-,N/A,Fog,Fog,20,2012-12-05 15:03:00
7:23 AM,55.4,55.4,100,30.13,0.2,NNE,1.2,-,N/A,Fog,Fog,20,2012-12-05 15:23:00
7:58 AM,54.9,54.7,99,30.14,0.2,SSE,1.2,-,N/A,Fog,Fog,160,2012-12-05 15:58:00
8:03 AM,55.4,55.4,100,30.13,0.5,SE,4.6,-,N/A,Fog,Fog,130,2012-12-05 16:03:00
8:08 AM,55.4,55.4,100,30.13,0.8,SSE,2.3,-,N/A,,Mist,160,2012-12-05 16:08:00
8:18 AM,55.4,55.4,100,30.13,0.5,Calm,Calm,-,N/A,Fog,Fog,0,2012-12-05 16:18:00
8:38 AM,55.4,55.4,100,30.14,0.5,NNE,2.3,-,N/A,Fog,Fog,20,2012-12-05 16:38:00
8:58 AM,55.6,55.6,100,30.16,0.5,NNW,2.3,-,N/A,Fog,Fog,340,2012-12-05 16:58:00
9:03 AM,55.4,55.4,100,30.15,0.8,Calm,Calm,-,N/A,,Mist,0,2012-12-05 17:03:00
9:13 AM,55.4,55.4,100,30.14,1.0,NE,1.2,-,N/A,,Mist,40,2012-12-05 17:13:00
9:23 AM,55.4,55.4,100,30.14,1.2,NE,1.2,-,N/A,,Overcast,40,2012-12-05 17:23:00
9:33 AM,55.4,55.4,100,30.14,1.5,Calm,Calm,-,N/A,,Overcast,0,2012-12-05 17:33:00
9:58 AM,55.4,55.4,100,30.15,1.5,ESE,3.5,-,N/A,,Overcast,120,2012-12-05 17:58:00
10:33 AM,57.2,57.2,100,30.13,2.0,ESE,3.5,-,N/A,,Overcast,110,2012-12-05 18:33:00
10:48 AM,57.2,57.2,100,30.13,2.0,NE,1.2,-,N/A,,Overcast,40,2012-12-05 18:48:00
10:58 AM,57.6,57.6,100,30.13,2.0,Calm,Calm,-,N/A,,Overcast,0,2012-12-05 18:58:00
11:23 AM,59.0,59.0,100,30.11,3.0,Calm,Calm,-,N/A,,Overcast,0,2012-12-05 19:23:00
11:58 AM,59.4,59.4,100,30.09,3.0,Calm,Calm,-,N/A,,Overcast,0,2012-12-05 19:58:00
12:03 PM,59.0,59.0,100,30.08,3.0,NE,2.3,-,N/A,,Mostly Cloudy,50,2012-12-05 20:03:00
12:28 PM,60.8,60.8,100,30.07,4.0,NE,3.5,-,N/A,,Mostly Cloudy,40,2012-12-05 20:28:00
12:58 PM,63.1,57.9,83,30.07,4.0,SW,4.6,-,N/A,,Haze,230,2012-12-05 20:58:00
1:58 PM,62.4,57.9,85,30.05,5.0,SSW,5.8,-,N/A,,Haze,200,2012-12-05 21:58:00
2:58 PM,61.2,55.8,82,30.03,5.0,South,5.8,-,N/A,,Haze,190,2012-12-05 22:58:00
3:58 PM,61.0,55.6,82,30.03,5.0,SSW,4.6,-,N/A,,Haze,200,2012-12-05 23:58:00
4:58 PM,59.2,53.8,82,30.03,5.0,South,4.6,-,N/A,,Haze,190,2012-12-06 00:58:00
5:58 PM,57.4,52.0,82,30.04,5.0,SSW,4.6,-,N/A,,Haze,200,2012-12-06 01:58:00
6:58 PM,57.6,52.2,82,30.04,5.0,Calm,Calm,-,N/A,,Haze,0,2012-12-06 02:58:00
7:58 PM,55.9,50.4,82,30.05,4.0,Calm,Calm,-,N/A,,Haze,0,2012-12-06 03:58:00
8:16 PM,55.4,55.4,100,30.04,4.0,Calm,Calm,-,N/A,,Overcast,0,2012-12-06 04:16:00
8:58 PM,57.0,57.0,100,30.05,4.0,NE,4.6,-,N/A,,Overcast,40,2012-12-06 04:58:00
9:58 PM,58.3,58.3,100,30.05,4.0,Calm,Calm,-,N/A,,Overcast,0,2012-12-06 05:58:00
10:58 PM,59.2,59.2,100,30.05,6.0,ENE,4.6,-,N/A,,Overcast,60,2012-12-06 06:58:00
11:58 PM,59.9,59.9,100,30.03,9.0,East,2.3,-,N/A,,Overcast,100,2012-12-06 07:58:00